Wind_Speed
10 9 9 5 8 8 8 3 4 3 10 16 23 26 25 25 19 14 17 23 14 7 4 4 9 11 11 13 16 17 19 21 20 21 21 23 28 27 26 24 26 28 31
11 8 9 8 9 10 8 6 5 6 15 17 16 18 19 23 22 19 25 20 14 7 3 8 16 14 17 16 18 19 21 25 27 28 30 32 31 29 28 31 32 33 33
23 18 14 13 12 16 11 9 5 8 11 23 19 18 26 24 28 23 18 17 14 9 6 10 16 15 16 19 23 22 24 27 29 31 35 38 35 34 34 35 36 38 37
27 23 15 14 16 14 11 11 11 12 9 24 26 25 29 19 20 18 21 18 15 11 11 13 15 17 20 20 24 27 29 31 35 36 38 38 36 37 37 39 39 39 40
24 22 16 16 10 14 12 14 14 12 13 10 33 31 31 27 22 24 25 18 17 13 14 16 21 19 22 20 20 24 28 29 31 34 36 39 38 38 37 37 36 37 38
27 25 22 19 14 13 11 13 14 13 15 15 31 38 34 30 26 27 26 19 20 17 17 20 25 20 26 22 21 23 24 26 28 31 32 34 35 34 34 34 33 31 30
35 32 26 20 11 7 11 10 11 12 14 12 16 42 41 37 29 28 25 24 19 20 23 25 29 24 23 26 22 24 25 27 28 32 31 33 32 30 30 28 28 27 25
32 28 22 23 17 7 11 8 8 11 14 9 3 31 41 41 37 30 27 25 22 21 27 31 32 28 26 29 25 27 30 28 30 31 30 33 27 26 24 25 24 20 22
28 28 25 21 19 11 13 9 6 5 7 11 10 8 33 37 36 33 29 27 24 22 30 36 35 32 32 34 32 31 25 27 29 29 31 32 28 22 22 19 20 18 16
28 26 26 22 18 11 16 11 7 3 1 3 2 4 15 30 34 34 33 32 31 26 32 39 37 35 33 35 36 35 30 33 29 30 27 27 21 21 20 20 18 15 13
33 29 27 25 26 19 16 18 13 5 2 6 1 7 8 19 26 33 37 37 34 31 34 40 40 36 33 35 41 38 35 32 28 28 27 26 21 23 24 21 16 16 15
38 34 29 31 29 32 23 25 19 8 2 3 2 4 7 10 21 30 33 36 35 35 38 43 42 39 36 36 42 39 38 35 31 28 27 26 24 22 26 22 18 16 18
46 43 37 34 33 33 31 25 25 22 12 7 6 4 5 6 9 24 35 36 37 39 40 48 48 43 40 40 41 42 39 36 35 32 33 28 28 27 27 23 20 18 21
52 50 46 43 37 36 38 34 27 27 24 23 14 8 5 8 7 9 18 32 38 41 42 50 49 48 45 45 47 44 43 39 37 36 33 32 30 29 27 26 25 25 23
46 58 53 50 45 40 42 39 33 31 30 28 22 18 11 6 5 6 12 22 35 40 44 52 52 51 47 46 50 45 44 40 42 41 38 36 34 33 32 30 29 29 30
37 39 53 57 53 50 44 42 41 36 36 33 28 25 18 13 6 7 8 16 32 39 46 52 50 50 49 47 48 52 48 44 41 42 43 41 40 38 39 36 35 34 34
39 36 36 43 56 57 53 53 51 44 40 38 31 32 29 24 17 11 8 8 25 36 45 48 48 47 48 49 49 51 54 50 47 44 44 44 44 43 41 41 41 41 40
42 40 37 38 41 53 57 55 53 49 46 44 40 33 31 30 28 16 16 11 22 37 42 43 44 44 47 46 45 50 53 53 54 52 47 45 46 48 49 46 45 44 44
42 43 42 40 39 37 52 57 59 56 51 48 47 44 37 32 30 25 24 21 20 37 45 44 42 43 47 45 41 44 48 51 52 52 51 50 47 46 46 48 48 45 42
37 42 42 41 39 37 37 51 58 60 56 53 52 51 47 44 35 31 31 31 22 28 43 42 39 40 46 49 45 44 48 48 50 49 49 49 48 48 48 46 44 44 40
37 36 37 38 44 40 35 36 50 57 60 60 56 58 58 55 49 42 39 39 34 29 37 43 43 43 46 49 52 50 52 53 54 53 52 49 49 49 49 48 46 45 44
41 37 36 35 41 43 41 35 35 47 58 64 64 60 59 56 55 51 46 46 44 42 40 40 45 48 49 51 52 56 60 58 59 57 54 50 49 51 51 49 50 50 50
46 41 38 36 35 40 40 33 31 34 42 49 54 57 60 59 56 55 53 50 52 50 48 47 49 48 52 52 50 54 56 62 64 63 56 53 49 48 49 55 56 55 55
49 45 39 36 35 36 34 28 28 29 34 40 44 49 51 54 56 57 56 55 55 54 56 55 52 55 55 57 57 56 53 58 64 65 62 61 62 63 58 59 58 58 60
53 46 39 34 33 32 33 28 26 23 26 31 36 39 42 46 51 52 53 53 53 57 56 57 58 58 58 60 64 65 60 60 61 64 67 69 69 71 71 68 67 64 64
54 43 36 31 27 28 30 27 18 17 20 22 32 33 33 35 39 43 48 50 51 56 59 60 60 62 64 64 63 62 67 68 65 65 65 64 62 66 69 71 70 68 69
Wind_Direction
268 318 328 337 358 348 14 359 326 224 185 201 216 225 220 226 205 204 188 163 135 98 71 94 88 105 109 105 104 105 107 102 100 105 115 120 130 131 128 116 111 112 109
257 285 295 302 339 338 308 312 360 228 213 206 211 204 197 197 200 175 163 147 149 137 78 114 96 116 125 112 110 106 103 102 100 100 105 112 120 123 119 113 112 107 106
261 265 277 271 302 313 306 304 310 325 235 222 197 200 183 199 202 171 160 157 171 161 131 136 116 123 133 121 118 111 106 102 101 100 104 109 116 116 113 108 106 103 102
257 252 256 275 296 306 289 293 308 287 307 214 211 199 200 205 200 181 163 156 179 172 159 153 141 142 140 138 126 119 111 108 107 108 109 109 111 113 111 109 104 102 101
241 261 253 273 296 302 277 288 318 317 303 251 210 207 206 200 190 190 175 175 173 181 178 166 160 144 150 149 146 139 129 122 117 118 117 117 116 114 112 110 108 106 105
240 253 248 259 265 292 269 300 319 321 313 300 215 209 202 201 188 184 189 184 188 190 189 180 166 168 162 156 158 150 150 136 131 129 125 123 122 120 119 117 114 110 106
241 246 246 249 265 290 267 299 320 342 316 336 210 200 203 210 201 201 197 194 203 198 196 187 172 178 177 177 173 168 158 146 143 137 134 130 127 126 125 121 114 108 105
234 241 232 242 256 263 263 269 302 317 2 14 103 196 205 213 212 211 209 215 220 207 198 193 179 180 187 184 181 172 166 158 154 152 151 139 135 134 132 130 127 118 114
232 232 222 234 234 238 238 251 292 287 314 12 68 180 210 216 212 213 211 219 221 220 200 196 183 184 188 188 187 191 195 176 169 167 161 154 144 147 146 151 147 147 127
228 234 225 223 215 222 229 221 237 181 13 101 54 31 203 213 213 213 213 217 219 217 207 201 185 187 184 191 194 198 191 180 180 180 177 164 164 168 168 169 169 161 150
234 235 226 227 220 218 233 222 228 204 176 157 62 30 218 212 218 219 218 217 214 210 206 201 191 188 186 187 191 195 193 193 188 186 186 187 184 184 179 181 187 195 200
238 235 236 229 229 226 233 221 216 182 162 103 289 6 24 224 217 217 212 209 211 208 204 200 194 191 189 185 188 189 195 196 197 200 202 201 202 194 202 207 216 221 226
236 242 239 231 230 222 224 222 220 230 242 303 301 339 360 8 220 222 217 210 209 207 204 202 194 192 190 194 191 192 195 199 204 206 209 211 214 220 221 228 239 236 232
234 235 234 239 231 229 227 234 233 238 245 247 267 275 293 319 325 241 225 219 210 211 206 202 199 195 194 195 197 199 201 207 212 215 216 219 221 222 229 238 242 247 249
240 234 233 235 236 234 230 233 235 241 243 246 246 261 271 283 259 273 262 228 215 216 212 200 202 199 200 200 201 202 206 213 218 220 221 224 225 228 233 235 245 250 248
242 243 239 233 234 236 228 236 238 243 240 239 241 243 253 257 276 238 327 244 224 214 208 201 204 203 206 208 209 209 214 217 220 224 223 228 232 239 241 242 249 256 250
241 244 245 242 238 236 238 237 240 242 237 234 241 244 245 248 257 262 290 264 224 213 203 202 207 206 210 212 215 219 221 225 229 230 229 232 235 240 244 248 253 258 258
240 240 240 244 241 238 240 239 240 239 234 236 234 240 244 239 245 247 247 261 230 211 202 205 212 213 214 216 219 222 226 228 230 235 237 236 240 243 247 250 252 255 255
241 243 241 240 241 241 238 240 239 238 242 238 234 240 237 235 238 241 237 254 232 218 208 208 212 217 218 222 227 229 230 231 233 235 237 238 237 240 243 249 251 255 253
243 242 241 240 237 240 239 237 239 238 239 238 235 239 238 238 237 239 233 248 234 229 219 221 226 230 228 225 229 233 230 231 233 234 235 236 238 239 240 243 245 244 249
245 246 245 241 234 237 238 238 236 237 237 236 237 237 239 239 243 244 242 232 239 227 227 228 232 235 232 232 233 235 234 234 235 236 236 239 240 241 244 245 247 250 250
243 245 247 241 239 239 244 243 243 239 238 239 241 240 239 243 243 245 246 240 233 237 234 235 233 234 236 238 240 242 241 237 237 236 237 244 251 251 249 252 249 256 256
241 241 246 244 240 241 243 246 250 245 241 239 241 243 243 244 242 242 245 244 244 243 236 239 238 238 241 239 241 244 247 243 240 240 243 246 250 255 255 255 256 257 257
236 237 241 244 239 239 242 246 254 241 236 239 240 242 243 246 246 246 246 247 242 242 240 233 237 239 239 243 242 244 245 247 244 241 250 253 255 256 263 261 257 259 259
234 234 236 242 242 241 245 251 246 246 248 241 238 240 240 242 244 244 244 242 239 238 237 235 235 234 236 241 244 244 246 246 246 249 252 256 257 259 260 260 258 260 262
231 229 232 238 243 241 245 246 249 260 271 268 257 253 248 245 243 243 244 244 243 239 238 237 237 238 238 239 241 244 245 248 250 251 251 253 253 256 258 260 263 265 267
Height
10944 10944 10943 10943 10943 10941 10941 10940 10940 10941 10941 10941 10943 10946 10950 10953 10955 10956 10958 10961 10964 10965 10965 10964 10963 10963 10962 10962 10961 10960 10958 10956 10954 10953 10953 10955 10958 10961 10963 10965 10967 10965 10966
10940 10940 10941 10941 10941 10941 10940 10940 10939 10939 10939 10940 10941 10943 10945 10949 10952 10955 10957 10959 10962 10964 10965 10965 10964 10967 10967 10966 10964 10964 10962 10961 10959 10958 10958 10961 10965 10967 10969 10969 10970 10970 10971
10936 10937 10937 10937 10938 10938 10937 10937 10936 10936 10935 10937 10938 10940 10943 10947 10949 10953 10956 10958 10960 10962 10963 10966 10967 10970 10971 10971 10970 10969 10968 10967 10965 10965 10966 10967 10971 10973 10974 10975 10976 10975 10975
10931 10932 10934 10934 10934 10934 10934 10933 10933 10932 10932 10933 10935 10938 10941 10944 10948 10952 10955 10956 10959 10961 10962 10966 10969 10972 10974 10976 10976 10976 10975 10974 10973 10974 10974 10974 10977 10979 10979 10980 10981 10982 10981
10928 10928 10930 10931 10930 10930 10930 10930 10929 10928 10927 10927 10929 10933 10937 10941 10945 10949 10952 10955 10957 10960 10962 10965 10970 10974 10977 10981 10982 10981 10980 10980 10981 10981 10980 10980 10983 10985 10985 10986 10988 10988 10988
10922 10924 10926 10927 10927 10927 10927 10926 10926 10923 10921 10919 10921 10928 10933 10937 10941 10946 10949 10953 10956 10958 10961 10964 10968 10973 10977 10982 10985 10985 10984 10983 10986 10989 10987 10987 10988 10990 10991 10992 10993 10995 10995
10917 10919 10921 10923 10924 10924 10924 10924 10924 10921 10917 10913 10912 10921 10929 10933 10939 10943 10947 10950 10955 10957 10960 10962 10966 10971 10975 10979 10984 10987 10986 10986 10987 10990 10992 10993 10994 10995 10995 10996 10998 11000 11001
10911 10913 10915 10918 10919 10920 10921 10922 10922 10920 10918 10914 10913 10917 10924 10930 10935 10940 10945 10948 10953 10957 10958 10960 10962 10967 10972 10977 10983 10988 10990 10989 10990 10990 10992 10994 10997 10999 11000 11000 11001 11003 11004
10905 10908 10910 10913 10914 10916 10918 10920 10920 10919 10918 10916 10917 10918 10923 10928 10933 10937 10941 10946 10950 10954 10955 10957 10958 10964 10969 10973 10979 10985 10990 10992 10993 10993 10993 10994 10997 11000 11001 11003 11002 11004 11006
10899 10902 10906 10908 10910 10912 10914 10917 10918 10918 10917 10917 10918 10919 10922 10926 10929 10933 10937 10941 10945 10949 10952 10955 10956 10960 10966 10972 10976 10981 10986 10990 10993 10994 10994 10995 10997 10999 11000 11001 11003 11005 11006
10890 10895 10899 10902 10905 10907 10910 10913 10915 10916 10915 10916 10916 10917 10918 10921 10925 10928 10932 10936 10939 10943 10947 10952 10955 10959 10962 10965 10972 10977 10983 10988 10991 10993 10994 10995 10997 10999 10999 11000 11002 11003 11005
10882 10886 10890 10894 10898 10901 10905 10908 10911 10912 10913 10913 10915 10914 10914 10915 10917 10921 10925 10928 10933 10936 10941 10945 10952 10957 10961 10963 10967 10973 10979 10983 10987 10989 10992 10993 10995 10997 10999 10999 11000 11001 11002
10873 10877 10882 10886 10890 10894 10898 10902 10905 10907 10909 10911 10912 10912 10911 10912 10913 10915 10918 10922 10927 10931 10935 10939 10944 10950 10955 10961 10964 10969 10974 10979 10982 10984 10987 10989 10991 10992 10994 10996 10997 10998 10999
10861 10867 10871 10876 10881 10885 10890 10894 10898 10901 10904 10907 10909 10910 10910 10909 10909 10911 10914 10917 10922 10926 10930 10935 10941 10944 10949 10954 10959 10963 10968 10973 10977 10979 10982 10984 10986 10987 10989 10991 10993 10995 10995
10847 10853 10860 10865 10870 10876 10881 10885 10890 10894 10897 10901 10904 10905 10907 10908 10908 10910 10911 10913 10916 10921 10926 10930 10936 10942 10946 10950 10955 10959 10963 10967 10970 10972 10975 10978 10980 10982 10984 10986 10987 10989 10990
10837 10840 10846 10853 10859 10864 10870 10875 10880 10885 10889 10894 10897 10900 10902 10904 10905 10907 10907 10908 10911 10915 10920 10927 10934 10938 10943 10946 10950 10954 10956 10959 10962 10966 10967 10969 10974 10977 10979 10981 10982 10982 10983
10826 10830 10834 10839 10846 10852 10858 10864 10870 10876 10880 10885 10889 10892 10896 10898 10900 10902 10904 10904 10907 10911 10916 10924 10930 10935 10939 10942 10945 10948 10950 10953 10956 10959 10961 10964 10967 10970 10972 10974 10974 10974 10974
10814 10819 10824 10826 10831 10838 10844 10851 10857 10863 10869 10874 10880 10884 10887 10891 10893 10897 10899 10901 10903 10907 10913 10919 10925 10928 10932 10936 10939 10943 10946 10949 10951 10954 10956 10957 10960 10962 10963 10964 10964 10965 10966
10804 10808 10812 10815 10820 10825 10829 10836 10843 10850 10856 10862 10868 10873 10878 10882 10885 10889 10893 10896 10898 10902 10907 10913 10918 10922 10926 10930 10934 10935 10937 10939 10942 10945 10947 10948 10948 10951 10954 10955 10955 10956 10956
10792 10796 10801 10805 10808 10813 10817 10823 10828 10835 10842 10848 10855 10860 10867 10872 10876 10880 10884 10888 10893 10896 10901 10907 10911 10916 10919 10922 10924 10926 10928 10929 10932 10934 10935 10939 10941 10942 10944 10944 10945 10943 10946
10783 10787 10790 10794 10797 10801 10806 10811 10816 10822 10827 10835 10841 10848 10853 10860 10865 10870 10874 10880 10884 10889 10894 10898 10902 10905 10908 10912 10914 10916 10917 10919 10921 10923 10925 10930 10931 10933 10934 10935 10935 10935 10936
10773 10776 10779 10783 10788 10792 10796 10800 10804 10810 10816 10822 10827 10834 10841 10846 10852 10858 10864 10868 10873 10878 10882 10886 10890 10892 10895 10898 10901 10902 10905 10907 10909 10911 10915 10919 10920 10922 10923 10924 10925 10925 10925
10761 10765 10769 10774 10777 10781 10787 10792 10796 10800 10805 10810 10816 10821 10826 10832 10838 10844 10849 10855 10860 10865 10869 10872 10875 10879 10881 10884 10886 10889 10892 10893 10896 10899 10903 10906 10907 10909 10910 10911 10911 10911 10911
10747 10753 10760 10765 10769 10774 10779 10783 10785 10787 10791 10796 10801 10806 10812 10817 10823 10829 10834 10838 10844 10850 10854 10858 10861 10863 10867 10870 10873 10875 10877 10879 10882 10885 10888 10890 10893 10894 10895 10896 10896 10897 10896
10734 10744 10752 10758 10763 10767 10771 10775 10776 10778 10782 10786 10789 10793 10798 10803 10808 10813 10818 10822 10827 10832 10836 10840 10843 10846 10850 10854 10857 10860 10862 10865 10867 10870 10872 10873 10875 10876 10877 10877 10878 10879 10879
10722 10737 10747 10753 10757 10761 10764 10769 10772 10773 10776 10778 10780 10783 10786 10789 10794 10799 10803 10807 10811 10815 10819 10822 10826 10830 10832 10835 10838 10841 10845 10848 10849 10851 10852 10854 10856 10857 10858 10859 10859 10860 10861